Regional Weather Roundup
Issued by NWS Binghamton, NY

Home | Current Version | Previous Version | Text Only | Print | Product List | Glossary On
Versions: 1 2 3 4 5 6 7 8 9 10 11 12 13 14 15 16 17 18 19 20 21 22 23 24 25 26 27
000
ASUS41 KBGM 171110
RWRBGM

REGIONAL WEATHER ROUNDUP
NATIONAL WEATHER SERVICE BINGHAMTON NY
600 AM EST WED JAN 17 2018

Note: "fair" indicates few or no clouds below 12,000 feet with no
significant weather and/or obstructions to visibility.

* = Station(s) that does not report precipitation, such as rain,
snow, etc, also no thunder or fog.

NYZ009-015>018-022>025-036-037-044>046-055>057-062-171200
...Central New York...

CITY           SKY/WX    TMP DP  RH WIND       PRES   REMARKS
Binghamton     LGT SNOW  20  19  96 NW12      30.24R VSB 1   WCI   8
Cortland       LGT SNOW  18  14  86 W5        30.33R WCI  11
Dansville      FAIR       2  -3  80 CALM      30.41R
Elmira         CLOUDY    18  11  74 W13       30.35R WCI   5
Seneca Falls   FLURRIES  16   9  73 W12       30.41R WCI   3
Ithaca         LGT SNOW  15  12  88 N9        30.33R FOG     WCI   3
Hornell        CLEAR     -4  -8  84 CALM      30.40R
Monticello     LGT SNOW  26  25  96 W3        30.23S FOG
Oneonta        LGT SNOW  23  21  93 CALM      30.21S
Penn Yan       LGT SNOW  14   5  67 SW12      30.36R WCI   0
Rome           CLOUDY    22  21  96 W7        30.35R WCI  13
Sidney         CLOUDY    25  25 100 CALM      30.27S
Syracuse       FLURRIES  17  14  88 W10       30.38R WCI   5
$$

PAZ038>040-043-044-047-048-072-171200
...Northeast Pennsylvania...

CITY           SKY/WX    TMP DP  RH WIND       PRES   REMARKS
Hazleton       LGT SNOW  23  19  86 W6G18     30.27S WCI  16
Scranton       LGT SNOW  26  26 100 SW7       30.27F VSB 3/4 WCI  18
$$
&&
KEY
WCI = Wind Chill Index
VSB = Visibility
HX  = Heat Index
$$




USA.gov is the U.S. government's official web portal to all federal, state and local government web resources and services.